FW5316 Weather Reports


Display with metric or nautical units.
time (UTC)temp
F
wind
direction
speed
MPH
gust
MPH
rain 1hr
in
rain 24hr
in
rain mn
in
humidity
%
barometer
mb
20260505051015 62 233 1.0 4.0 0.00 0.00 0.00 71 1016.3
20260505041015 62 211 5.0 10.0 0.00 0.00 0.00 71 1016.3
20260505040015 62 208 4.0 10.0 0.00 0.00 0.00 71 1016.2
20260505035017 62 222 4.0 9.0 0.00 0.00 0.00 70 1016.1
20260505034015 62 224 2.0 6.0 0.00 0.00 0.00 69 1016.1
20260505033015 62 242 2.0 7.0 0.00 0.00 0.00 69 1016.0
20260505032015 62 231 2.0 7.0 0.00 0.00 0.00 69 1015.9
20260505031035 62 262 2.0 5.0 0.00 0.00 0.00 69 1015.8
20260505030015 62 254 2.0 6.0 0.00 0.00 0.00 69 1015.8
20260505025015 63 238 2.0 4.0 0.00 0.00 0.00 69 1015.8
20260505024115 63 277 2.0 6.0 0.00 0.00 0.00 68 1015.5
20260505023015 63 244 3.0 8.0 0.00 0.00 0.00 68 1015.6
20260505022015 64 252 3.0 7.0 0.00 0.00 0.00 66 1015.5
20260505021015 64 244 4.0 11.0 0.00 0.00 0.00 66 1015.6
20260505020035 64 226 5.0 11.0 0.00 0.00 0.00 65 1015.6
20260505015015 65 227 4.0 10.0 0.00 0.00 0.00 65 1015.6
20260505014015 65 243 3.0 9.0 0.00 0.00 0.00 65 1015.6
20260505013015 65 232 3.0 11.0 0.00 0.00 0.00 64 1015.7
20260505012035 66 243 5.0 11.0 0.00 0.00 0.00 61 1015.8
20260505011035 66 262 5.0 10.0 0.00 0.00 0.00 60 1015.7
20260505010015 67 241 4.0 10.0 0.00 0.00 0.00 62 1015.8
20260505005017 67 242 5.0 13.0 0.00 0.00 0.00 62 1015.8
20260505004017 67 245 5.0 11.0 0.00 0.00 0.00 61 1015.9
20260505003017 67 248 4.0 12.0 0.00 0.00 0.00 60 1015.9
20260505002017 68 247 4.0 12.0 0.00 0.00 0.00 59 1016.0
20260505001016 68 246 5.0 13.0 0.00 0.00 0.00 58 1016.0
20260505000017 69 234 5.0 13.0 0.00 0.00 0.00 57 1016.1
20260504235017 69 256 6.0 14.0 0.00 0.00 0.00 58 1016.1
20260504234017 69 264 6.0 14.0 0.00 0.00 0.00 58 1016.2
20260504233017 69 263 6.0 12.0 0.00 0.00 0.00 59 1016.1
20260504232017 69 231 5.0 14.0 0.00 0.00 0.00 57 1016.0
20260504231017 70 232 5.0 11.0 0.00 0.00 0.00 56 1016.1
20260504230016 71 245 4.0 14.0 0.00 0.00 0.00 55 1016.1
20260504225017 71 261 6.0 13.0 0.00 0.00 0.00 54 1016.0
20260504224017 71 286 7.0 12.0 0.00 0.00 0.00 54 1016.1
20260504223016 71 267 6.0 15.0 0.00 0.00 0.00 55 1016.1
20260504222016 72 277 6.0 14.0 0.00 0.00 0.00 54 1016.2
20260504221016 73 247 5.0 15.0 0.00 0.00 0.00 52 1016.3
20260504220017 73 271 6.0 14.0 0.00 0.00 0.00 53 1016.4
20260504215016 73 282 7.0 15.0 0.00 0.00 0.00 53 1016.5
20260504214016 74 274 6.0 14.0 0.00 0.00 0.00 52 1016.5
20260504213016 73 299 8.0 16.0 0.00 0.00 0.00 52 1016.5
20260504212017 74 267 6.0 13.0 0.00 0.00 0.00 52 1016.6
20260504211016 73 298 9.0 16.0 0.00 0.00 0.00 52 1016.6
20260504210016 72 263 5.0 12.0 0.00 0.00 0.00 54 1016.6
20260504205016 72 294 6.0 14.0 0.00 0.00 0.00 55 1016.6
20260504204017 72 263 6.0 13.0 0.00 0.00 0.00 53 1016.6
20260504203017 72 260 5.0 13.0 0.00 0.00 0.00 53 1016.5
20260504202017 72 273 4.0 12.0 0.00 0.00 0.00 53 1016.6
20260504201016 72 240 6.0 12.0 0.00 0.00 0.00 54 1016.6
20260504200016 72 256 5.0 11.0 0.00 0.00 0.00 55 1016.8
20260504195016 72 252 5.0 12.0 0.00 0.00 0.00 55 1017.0
20260504194016 72 281 8.0 15.0 0.00 0.00 0.00 54 1017.0
20260504193017 72 276 5.0 11.0 0.00 0.00 0.00 55 1017.0
20260504192016 72 271 5.0 12.0 0.00 0.00 0.00 55 1017.1
20260504191017 72 272 7.0 13.0 0.00 0.00 0.00 56 1017.0
20260504190016 71 244 5.0 13.0 0.00 0.00 0.00 54 1017.1
20260504185016 72 261 5.0 11.0 0.00 0.00 0.00 53 1017.2
20260504184016 73 278 6.0 13.0 0.00 0.00 0.00 53 1017.3
20260504183016 73 265 5.0 10.0 0.00 0.00 0.00 52 1017.4
20260504182016 73 275 7.0 14.0 0.00 0.00 0.00 53 1017.3
20260504181036 71 272 4.0 10.0 0.00 0.00 0.00 55 1017.3
20260504180016 70 244 2.0 11.0 0.00 0.00 0.00 55 1017.2
20260504175016 70 248 2.0 8.0 0.00 0.00 0.00 54 1017.0
20260504174017 71 246 4.0 9.0 0.00 0.00 0.00 54 1017.1
20260504173016 72 247 4.0 11.0 0.00 0.00 0.00 54 1017.2
20260504172016 71 271 4.0 10.0 0.00 0.00 0.00 55 1017.0
20260504171016 70 271 5.0 12.0 0.00 0.00 0.00 56 1016.9
20260504151016 67 321 2.0 8.0 0.00 0.00 0.00 63 1016.3
20260504141015 59 0.0 0.0 0.00 0.00 0.00 75 1016.0
20260504081015 62 294 4.0 10.0 0.00 0.00 0.00 73 1016.3